2021-120C (49951 NORAD) Tracking and Keplerian Element Data

This shows tracking and keplerian element data for the satellite.

Feedback or suggestion? Click here.




ElementValue
Catalog49951
Name2021-120C
Epoch Orbit431
Epoch Day5.84689003
Epoch Year2022
RAAN208.3503
Inclination42.0129
Eccentricity0.0004744
Argument of Perigee113.9106
Mean Anonmoly246.2235
Mean Motion15.49479746
Decay Rate0.00053033
L11 49951U 21120C 22005.84689003 .00053033 00000+0 93803-3 0 9990
L22 49951 42.0129 208.3503 0004744 113.9106 246.2235 15.49479746 4317

Live tracking and technical data element details for 2021-120C (NORAD 49951). 2021-120C can be tracked NOW for your location showing map with azimuth and elevation plus other details from your city location.

Track the satellite on the map from your city or location and see movement details for azimuth, elevation, latitude, longitude, range, height, and movement on the map or in text.







IsCatalogInMostPopularTable: catalog: 49951, numindb: 29
Update: records affected: 1



GetName: 49951 2021-120C

Hit Count: updated at: Mon, 23 May 2022 20:51:08 GMT